Theta_e
313 314 315 318 317 316 315 313 310 304 304 307 307 313 316 316 315 316 316 314 318 321 322 321 320 320 321 321 322 321 319 317 314 312 311 310 308 307
313 313 314 316 316 316 314 313 313 311 305 309 310 312 315 315 312 314 314 311 315 318 318 316 315 316 318 318 319 318 317 315 312 311 310 309 307 307
312 311 312 315 315 315 315 314 312 311 308 307 311 306 312 313 312 313 312 313 313 315 316 315 313 313 315 316 316 315 314 312 311 310 308 307 306 305
310 310 310 312 313 314 314 313 312 312 310 305 304 303 307 310 310 310 310 311 312 312 314 313 313 313 313 313 312 311 310 310 309 307 305 305 303 303
309 309 310 310 310 312 312 312 312 311 308 305 299 300 304 309 306 308 306 307 307 308 312 312 312 312 312 311 309 308 307 307 306 304 303 301 300 300
308 310 310 310 309 311 311 311 312 311 308 306 301 301 305 305 305 304 301 303 303 306 308 308 310 310 310 309 307 305 304 304 303 301 300 299 298 298
306 308 310 309 307 310 310 309 308 307 303 303 300 299 301 301 301 303 301 300 298 301 300 301 302 302 304 306 303 302 302 303 302 300 298 297 297 297
304 308 310 305 306 307 307 307 309 306 302 301 300 299 300 302 302 301 298 297 293 298 297 294 298 296 298 298 302 302 301 300 298 297 297 297 297 297
305 307 306 307 305 307 306 305 305 306 306 304 300 300 299 301 301 299 298 296 292 294 295 290 292 293 295 298 300 300 299 299 298 297 297 296 296 295
305 305 304 303 305 304 303 302 303 303 304 304 303 302 302 303 302 300 296 289 291 290 293 287 289 289 292 293 298 297 297 296 296 296 295 293 292 291
301 302 302 302 302 303 300 297 297 297 300 300 300 301 301 301 298 295 291 290 286 287 289 286 287 287 289 288 292 295 295 294 294 293 291 290 290 290
300 300 301 302 301 301 298 296 294 294 295 294 294 294 295 296 297 295 293 289 285 285 288 286 286 286 284 285 286 288 290 293 291 289 289 289 289 285
298 298 300 300 300 300 299 296 294 294 294 291 290 290 289 289 290 291 291 290 287 285 289 287 285 285 285 283 284 286 286 286 284 284 287 288 288 287
294 296 297 297 297 297 297 297 296 294 291 289 287 286 286 285 285 286 286 287 288 287 288 287 285 285 284 283 282 283 282 282 281 281 281 284 286 287
294 294 294 295 295 295 295 295 293 291 289 286 285 284 284 284 285 285 285 285 284 285 286 286 286 285 284 281 278 279 279 280 281 280 280 280 279 279
291 291 292 291 291 290 289 289 289 288 286 284 283 284 285 285 284 285 283 282 281 280 282 284 283 281 277 278 276 275 277 274 279 279 278 279 279 280
288 287 286 286 285 285 285 285 285 285 284 284 284 283 283 283 283 283 282 282 280 278 277 278 279 280 279 277 272 275 275 275 277 279 279 278 279 278
285 283 283 283 282 282 282 282 283 284 284 284 284 283 282 282 282 283 283 283 281 281 279 277 278 275 275 276 280 274 272 273 277 279 275 269 270 275
281 281 280 280 280 280 280 280 279 280 281 281 282 282 281 282 281 280 281 281 281 280 279 279 279 276 266 267 274 282 269 269 269 269 272 270 268 276
279 279 278 279 279 278 278 278 278 277 277 277 277 278 278 279 278 278 278 277 278 278 277 275 276 276 274 271 266 272 281 268 267 266 267 270 274 281
278 278 278 278 277 277 277 276 276 276 275 274 273 273 272 272 273 277 277 278 277 272 273 274 273 280 277 269 266 268 273 282 277 267 265 274 269 270
276 276 276 277 276 275 275 274 273 273 272 271 270 269 270 270 272 270 271 275 272 273 273 271 269 276 275 274 271 266 270 273 279 282 282 280 274 268
275 275 275 275 274 274 272 272 271 271 269 268 267 266 275 274 275 275 275 275 274 273 272 271 269 269 274 274 274 274 272 268 271 272 274 281 282 282
Wind_Speed
10 9 10 10 9 8 9 9 9 8 10 7 5 7 7 8 12 13 12 16 15 16 15 12 13 15 14 14 11 15 14 13 11 11 11 9 8 7
9 11 11 10 10 9 9 9 11 11 10 6 8 8 12 9 10 12 12 16 18 15 13 11 10 9 12 11 11 14 14 13 13 11 11 10 9 8
11 9 10 11 9 9 9 7 10 8 7 3 6 4 12 12 10 11 11 12 11 18 15 13 13 11 10 11 14 16 16 14 13 12 10 9 9 8
13 11 10 8 11 11 9 12 11 10 9 7 2 3 8 13 11 11 9 8 9 15 17 15 13 12 12 13 14 15 14 13 11 10 8 8 6 6
13 13 11 11 11 8 10 9 10 8 6 5 4 2 3 10 7 7 6 7 5 12 17 15 14 13 14 14 14 13 12 11 11 8 7 6 5 6
14 13 14 12 11 11 11 13 12 10 6 6 4 4 6 7 8 10 5 3 1 3 6 8 12 13 14 14 14 13 12 11 10 9 7 5 4 5
14 14 11 12 13 12 9 10 9 9 7 7 5 3 5 8 11 7 7 6 3 1 3 4 5 4 7 11 10 12 12 11 10 8 7 5 5 6
15 14 10 11 12 17 17 16 16 13 11 8 7 11 8 9 6 9 8 6 3 2 4 2 3 4 3 4 11 12 11 10 7 6 6 6 5 5
14 8 7 6 10 10 14 15 16 17 18 13 12 10 9 9 8 9 10 5 3 4 5 2 2 3 3 4 11 10 8 8 7 6 6 4 2 1
7 8 8 6 7 9 10 8 7 7 10 8 9 9 10 8 9 4 7 7 5 4 1 3 2 3 2 2 6 7 6 6 5 5 5 4 2 2
6 6 6 7 15 18 13 13 13 11 17 21 19 15 16 15 12 10 7 9 3 1 2 4 3 3 2 2 2 5 5 4 5 7 4 1 2 6
7 8 12 11 17 18 13 15 14 10 14 13 11 14 15 14 11 4 7 7 4 2 3 4 3 4 3 2 3 1 2 8 6 3 2 3 5 2
8 8 9 19 18 18 17 11 13 13 19 12 10 9 9 9 7 8 7 5 4 3 4 3 2 2 3 3 2 1 2 2 2 2 4 5 7 3
9 9 13 23 22 22 16 24 23 16 9 10 10 9 9 8 7 8 9 9 9 8 5 5 4 2 3 3 2 1 2 2 2 1 1 5 7 7
11 20 27 26 26 21 23 22 17 10 9 10 9 8 6 5 5 7 10 13 12 10 7 5 6 5 3 3 3 2 2 1 2 1 2 2 2 2
16 16 22 23 24 17 15 14 10 9 9 9 8 6 5 5 7 5 6 7 8 7 8 8 5 4 3 3 4 2 1 1 0 2 1 2 3 3
13 11 11 11 11 10 11 11 9 8 8 6 7 7 6 6 6 4 2 2 4 3 2 4 5 6 4 5 3 1 1 1 1 2 2 3 3 4
12 10 10 9 9 8 9 9 8 10 7 7 7 6 6 6 6 4 3 5 6 5 4 1 1 3 4 4 3 2 2 1 1 1 2 1 3 4
11 9 10 9 8 8 8 8 8 7 8 7 7 6 5 6 7 4 3 3 5 5 4 3 3 2 3 1 3 5 3 1 1 2 3 3 3 6
10 9 9 8 8 8 7 7 7 7 7 6 6 5 4 5 5 5 4 3 4 4 3 3 3 2 1 2 1 3 4 3 2 2 3 2 4 13
8 9 8 8 7 7 7 6 7 7 6 6 5 5 5 4 4 4 3 6 4 2 2 3 1 8 3 3 4 3 3 4 5 4 3 3 2 3
8 8 7 7 7 6 6 6 6 6 5 5 5 4 4 4 4 3 3 3 3 2 3 2 1 3 2 1 1 2 3 3 6 8 8 7 2 3
7 7 6 6 6 6 6 5 6 5 4 4 4 3 4 3 3 3 3 3 3 3 2 1 1 2 2 2 1 1 3 3 2 3 3 7 9 9
Wind_Direction
242 233 224 225 216 202 194 185 186 195 197 199 167 193 193 181 184 186 184 183 197 199 200 203 204 201 195 198 198 183 176 175 181 191 193 203 221 239
237 234 226 221 213 207 199 199 208 213 210 172 213 183 189 192 182 176 181 182 189 191 193 194 167 179 192 195 188 166 165 165 180 191 204 219 230 243
233 229 226 220 203 204 195 186 211 196 218 189 174 186 194 193 183 186 182 186 190 189 189 182 168 175 183 184 168 163 163 169 181 193 208 221 230 243
239 233 222 219 216 203 207 203 199 211 209 196 129 142 193 192 184 188 187 190 192 189 184 181 172 179 179 172 165 161 156 166 177 188 200 220 231 242
254 227 219 209 213 196 205 202 216 205 193 166 161 166 153 182 166 183 178 189 204 180 185 175 172 170 166 160 158 152 151 148 161 162 180 199 214 233
248 248 214 204 203 203 204 210 205 197 187 186 166 167 167 169 171 172 151 99 144 134 151 157 161 164 159 155 153 153 157 157 158 172 176 177 205 239
246 236 225 196 200 200 194 198 184 183 165 185 159 113 169 161 171 167 158 122 46 101 110 106 119 130 161 153 156 156 157 156 159 170 185 202 222 236
241 227 208 201 200 193 187 192 189 184 180 171 177 176 181 170 153 155 147 138 143 335 96 68 110 131 131 137 149 145 142 147 158 182 212 229 234 254
227 200 184 196 191 197 200 187 192 194 182 171 177 178 163 157 142 156 166 147 139 162 112 130 52 104 79 112 135 137 155 168 182 204 215 232 230 130
163 166 162 149 168 155 133 123 116 130 145 155 162 141 127 160 154 157 140 97 75 52 15 125 89 101 106 91 136 138 164 176 197 199 173 148 111 320
86 101 128 139 147 135 123 114 100 87 83 88 87 97 104 122 131 123 133 129 107 109 349 96 137 106 92 103 76 104 145 165 180 145 132 137 334 317
83 94 109 116 119 125 122 116 108 112 103 85 76 69 72 74 77 89 147 140 120 96 223 104 132 141 110 33 48 79 117 140 126 137 199 297 300 37
73 81 86 93 99 97 96 100 101 104 93 93 87 77 69 64 58 58 57 95 118 92 157 108 114 100 77 121 83 126 147 151 102 43 357 333 316 282
70 71 80 80 81 86 92 100 98 94 93 88 84 76 76 67 59 62 64 65 55 81 80 82 99 115 118 107 120 99 45 62 76 67 13 329 330 322
75 84 80 79 80 77 85 89 89 86 91 87 83 77 74 82 86 75 68 68 60 47 44 57 98 105 96 117 136 105 91 3 31 63 13 19 343 326
73 75 80 78 73 71 65 62 66 69 81 89 91 89 82 80 79 79 88 84 78 60 38 49 68 88 73 75 102 126 114 164 318 58 3 355 344 340
78 68 65 65 64 59 60 60 59 65 75 80 88 90 85 85 80 78 75 83 101 115 58 17 35 58 79 125 78 125 140 70 37 26 354 301 286 262
70 68 67 66 69 71 70 69 62 69 70 80 81 85 88 85 86 73 51 87 105 109 102 102 64 46 25 9 136 119 30 121 180 247 271 261 270 253
72 68 68 67 69 69 71 71 72 62 66 64 69 70 69 76 83 67 66 89 98 94 85 58 56 89 73 102 302 136 120 317 337 298 230 221 257 307
64 69 72 69 68 70 68 69 68 66 64 64 66 61 65 89 89 79 61 61 72 90 85 70 61 48 77 181 189 275 226 168 172 251 290 313 262 293
64 65 65 68 67 70 70 69 74 76 73 73 63 60 53 69 61 77 87 106 89 44 101 97 306 93 74 54 30 322 301 238 193 182 229 292 271 291
65 67 62 63 64 65 69 71 70 68 61 64 66 63 49 71 73 71 60 67 39 42 92 130 161 105 98 77 202 252 304 315 311 314 313 306 205 290
62 65 63 61 58 59 62 70 72 67 68 69 65 53 79 70 65 58 58 76 36 44 75 75 42 67 169 187 354 335 301 307 295 324 312 322 333 308